,,Stat5,,Stat1,,Stat2,,Stat3,,Stat4,,Wind1,,Wind1,
time,status,PA1M_AVG,status,PR1M_SUM,status,RH1M_AVG,status,SR1M_AVG,status,TA1M_AVG,status,W1dAve1m,status,W1sAve1m,
2003-02-25, 00:00:00,VALID,917.888,VALID,0,VALID,99.723,VALID,0,VALID,19.5082,VALID,171,VALID,0.812027,
2003-02-25, 00:01:00,VALID,917.908,VALID,0,VALID,99.7243,VALID,0,VALID,19.5082,VALID,165,VALID,0.565578,
2003-02-25, 00:02:00,VALID,917.896,VALID,0,VALID,99.7129,VALID,0,VALID,19.502,VALID,162,VALID,0.25803,
2003-02-25, 00:03:00,VALID,917.891,VALID,0,VALID,99.7154,VALID,-0.0169808,VALID,19.4983,VALID,162,VALID,0,
2003-02-25, 00:04:00,VALID,917.863,VALID,0,VALID,99.7307,VALID,-0.0509425,VALID,19.4856,VALID,162,VALID,0,
2003-02-25, 00:05:00,VALID,917.855,VALID,0,VALID,99.723,VALID,-0.0169808,VALID,19.4856,VALID,162,VALID,0,
2003-02-25, 00:06:00,VALID,917.84,VALID,0,VALID,99.737,VALID,-0.0169808,VALID,19.4824,VALID,162,VALID,0,
2003-02-25, 00:07:00,VALID,917.836,VALID,0,VALID,99.737,VALID,0,VALID,19.4694,VALID,162,VALID,0,
2003-02-25, 00:08:00,VALID,917.824,VALID,0,VALID,99.737,VALID,0,VALID,19.4664,VALID,170,VALID,0.200452,
2003-02-25, 00:09:00,VALID,917.83,VALID,0,VALID,99.7396,VALID,0,VALID,19.4727,VALID,180,VALID,0,
2003-02-25, 00:10:00,VALID,917.819,VALID,0,VALID,99.7408,VALID,0,VALID,19.4794,VALID,180,VALID,0,
2003-02-25, 00:11:00,VALID,917.827,VALID,0,VALID,99.737,VALID,0,VALID,19.4724,VALID,180,VALID,0,
2003-02-25, 00:12:00,VALID,917.83,VALID,0,VALID,99.7319,VALID,-0.0169808,VALID,19.4567,VALID,180,VALID,0,
2003-02-25, 00:13:00,VALID,917.825,VALID,0,VALID,99.7294,VALID,-0.0509425,VALID,19.453,VALID,180,VALID,0,
2003-02-25, 00:14:00,VALID,917.814,VALID,0,VALID,99.7319,VALID,0,VALID,19.4433,VALID,180,VALID,0.166964,
2003-02-25, 00:15:00,VALID,917.803,VALID,0,VALID,99.7332,VALID,0,VALID,19.4334,VALID,180,VALID,0.371205,
2003-02-25, 00:16:00,VALID,917.793,VALID,0,VALID,99.7256,VALID,0,VALID,19.4336,VALID,71,VALID,0.522964,
2003-02-25, 00:17:00,VALID,917.788,VALID,0,VALID,99.7256,VALID,-0.0169808,VALID,19.4082,VALID,21,VALID,0.411184,
2003-02-25, 00:18:00,VALID,917.792,VALID,0,VALID,99.7256,VALID,-0.0509425,VALID,19.3886,VALID,20,VALID,0.433134,
2003-02-25, 00:19:00,VALID,917.779,VALID,0,VALID,99.7307,VALID,-0.0339617,VALID,19.4087,VALID,20,VALID,0.509233,
2003-02-25, 00:20:00,VALID,917.756,VALID,0,VALID,99.7319,VALID,-0.0509425,VALID,19.4373,VALID,20,VALID,0.250434,
2003-02-25, 00:21:00,VALID,917.74,VALID,0,VALID,99.7396,VALID,0.0679233,VALID,19.4523,VALID,21,VALID,0,
2003-02-25, 00:22:00,VALID,917.721,VALID,0,VALID,99.7434,VALID,0.0849042,VALID,19.4486,VALID,20,VALID,0,
2003-02-25, 00:23:00,VALID,917.706,VALID,0,VALID,99.7383,VALID,0.0509425,VALID,19.4389,VALID,20,VALID,0,
2003-02-25, 00:24:00,VALID,917.704,VALID,0,VALID,99.7459,VALID,0.101885,VALID,19.4421,VALID,20,VALID,0,
2003-02-25, 00:25:00,VALID,917.688,VALID,0,VALID,99.7447,VALID,0.101885,VALID,19.4615,VALID,20,VALID,0.0113636,
2003-02-25, 00:26:00,VALID,917.698,VALID,0,VALID,99.7396,VALID,0.0679233,VALID,19.4423,VALID,23,VALID,1.08635,
2003-02-25, 00:27:00,VALID,917.677,VALID,0,VALID,99.7319,VALID,0.0509425,VALID,19.3876,VALID,35,VALID,1.16406,
2003-02-25, 00:28:00,VALID,917.664,VALID,0,VALID,99.7383,VALID,0.0509425,VALID,19.3842,VALID,46,VALID,0.985795,
2003-02-25, 00:29:00,VALID,917.644,VALID,0,VALID,99.7396,VALID,0.0849042,VALID,19.3906,VALID,59,VALID,1.08464,
2003-02-25, 00:30:00,VALID,917.617,VALID,0,VALID,99.7243,VALID,0.0679233,VALID,19.3842,VALID,64,VALID,1.05915,
2003-02-25, 00:31:00,VALID,917.595,VALID,0,VALID,99.7447,VALID,0.0509425,VALID,19.3777,VALID,66,VALID,1.00758,
2003-02-25, 00:32:00,VALID,917.571,VALID,0,VALID,99.7307,VALID,0.101885,VALID,19.3479,VALID,62,VALID,0.834821,
2003-02-25, 00:33:00,VALID,917.561,VALID,0,VALID,99.7205,VALID,0.0849042,VALID,19.332,VALID,59,VALID,0.995313,
2003-02-25, 00:34:00,VALID,917.546,VALID,0,VALID,99.7205,VALID,0.101885,VALID,19.3424,VALID,50,VALID,0.767045,
2003-02-25, 00:35:00,VALID,917.545,VALID,0,VALID,99.7358,VALID,0.101885,VALID,19.3389,VALID,49,VALID,0.635074,
2003-02-25, 00:36:00,VALID,917.543,VALID,0,VALID,99.7307,VALID,-0.0169808,VALID,19.327,VALID,51,VALID,0.593061,
2003-02-25, 00:37:00,VALID,917.538,VALID,0,VALID,99.7358,VALID,-0.0509425,VALID,19.3434,VALID,47,VALID,0.495502,
2003-02-25, 00:38:00,VALID,917.555,VALID,0,VALID,99.7332,VALID,-0.0509425,VALID,19.3242,VALID,37,VALID,0.623047,
2003-02-25, 00:39:00,VALID,917.548,VALID,0,VALID,99.7307,VALID,-0.0509425,VALID,19.3272,VALID,36,VALID,0.505357,
2003-02-25, 00:40:00,VALID,917.552,VALID,0,VALID,99.7345,VALID,-0.0169808,VALID,19.3371,VALID,56,VALID,0.414299,
2003-02-25, 00:41:00,VALID,917.557,VALID,0,VALID,99.7408,VALID,-0.0169808,VALID,19.3468,VALID,74,VALID,0.479241,
2003-02-25, 00:42:00,VALID,917.558,VALID,0,VALID,99.7459,VALID,-0.0169808,VALID,19.3598,VALID,111,VALID,0.626786,
2003-02-25, 00:43:00,VALID,917.563,VALID,0,VALID,99.7523,VALID,-0.0679233,VALID,19.36,VALID,118,VALID,0.432055,
2003-02-25, 00:44:00,VALID,917.57,VALID,0,VALID,99.7497,VALID,-0.0509425,VALID,19.3595,VALID,118,VALID,0.590255,
2003-02-25, 00:45:00,VALID,917.566,VALID,0,VALID,99.7587,VALID,-0.0339617,VALID,19.3826,VALID,119,VALID,0.479779,
2003-02-25, 00:46:01,VALID,917.557,VALID,0,VALID,99.765,VALID,-0.0169808,VALID,19.399,VALID,91,VALID,0.198864,
2003-02-25, 00:47:00,VALID,917.539,VALID,0,VALID,99.7548,VALID,-0.0339617,VALID,19.4023,VALID,80,VALID,0.0490451,
2003-02-25, 00:48:01,VALID,917.53,VALID,0,VALID,99.7587,VALID,-0.0339617,VALID,19.4018,VALID,80,VALID,0.0524554,
2003-02-25, 00:49:00,VALID,917.506,VALID,0,VALID,99.7599,VALID,-0.0169808,VALID,19.4048,VALID,76,VALID,0.0371686,
2003-02-25, 00:50:00,VALID,917.492,VALID,0,VALID,99.7574,VALID,-0.0679233,VALID,19.4217,VALID,44,VALID,0.352009,
2003-02-25, 00:51:00,VALID,917.481,VALID,0,VALID,99.7612,VALID,-0.0509425,VALID,19.4147,VALID,34,VALID,0.359152,
2003-02-25, 00:52:00,VALID,917.464,VALID,0,VALID,99.7536,VALID,0,VALID,19.4373,VALID,34,VALID,0.361506,
2003-02-25, 00:53:00,VALID,917.443,VALID,0,VALID,99.7561,VALID,-0.0339617,VALID,19.4242,VALID,34,VALID,0.336349,
2003-02-25, 00:54:00,VALID,917.416,VALID,0,VALID,99.7536,VALID,-0.0339617,VALID,19.4147,VALID,34,VALID,0.185662,
2003-02-25, 00:55:00,VALID,917.397,VALID,0,VALID,99.7599,VALID,-0.0169808,VALID,19.3923,VALID,34,VALID,0.101799,
2003-02-25, 00:56:00,VALID,917.362,VALID,0,VALID,99.7472,VALID,-0.0169808,VALID,19.3695,VALID,34,VALID,0.0323351,
2003-02-25, 00:57:01,VALID,917.329,VALID,0,VALID,99.7408,VALID,-0.0679233,VALID,19.3667,VALID,34,VALID,0,
2003-02-25, 00:58:00,VALID,917.294,VALID,0,VALID,99.7383,VALID,-0.0169808,VALID,19.3595,VALID,34,VALID,0.00094697,
2003-02-25, 00:59:00,VALID,917.248,VALID,0,VALID,99.7459,VALID,0,VALID,19.3593,VALID,34,VALID,0,
2003-02-25, 01:00:00,VALID,917.221,VALID,0,VALID,99.7472,VALID,0,VALID,19.3595,VALID,34,VALID,0,
2003-02-25, 01:01:00,VALID,917.187,VALID,0,VALID,99.7459,VALID,-0.0169808,VALID,19.356,VALID,34,VALID,0,
2003-02-25, 01:02:00,VALID,917.146,VALID,0,VALID,99.7497,VALID,-0.0339617,VALID,19.3498,VALID,34,VALID,0,
2003-02-25, 01:03:01,VALID,917.12,VALID,0,VALID,99.7383,VALID,-0.0169808,VALID,19.3076,VALID,347,VALID,0.31273,
2003-02-25, 01:04:00,VALID,917.098,VALID,0,VALID,99.7472,VALID,-0.0509425,VALID,19.3013,VALID,256,VALID,0.648674,
2003-02-25, 01:05:00,VALID,917.071,VALID,0,VALID,99.7421,VALID,-0.0339617,VALID,19.318,VALID,256,VALID,0.604384,
2003-02-25, 01:06:00,VALID,917.06,VALID,0,VALID,99.7536,VALID,0.0339617,VALID,19.323,VALID,256,VALID,0.341964,
2003-02-25, 01:07:01,VALID,917.057,VALID,0,VALID,99.7548,VALID,0.0509425,VALID,19.3421,VALID,256,VALID,0.308475,
2003-02-25, 01:08:00,VALID,917.058,VALID,0,VALID,99.7637,VALID,0.0849042,VALID,19.3352,VALID,256,VALID,0.0633929,
2003-02-25, 01:09:00,VALID,917.053,VALID,0,VALID,99.7599,VALID,0.101885,VALID,19.3516,VALID,256,VALID,0,
2003-02-25, 01:10:00,VALID,917.036,VALID,0,VALID,99.7701,VALID,0.101885,VALID,19.3678,VALID,256,VALID,0,
2003-02-25, 01:11:00,VALID,917.027,VALID,0,VALID,99.7688,VALID,0.101885,VALID,19.3643,VALID,256,VALID,0,
2003-02-25, 01:12:01,VALID,916.997,VALID,0,VALID,99.7625,VALID,0.0849042,VALID,19.3678,VALID,256,VALID,0.140165,
2003-02-25, 01:13:00,VALID,916.989,VALID,0,VALID,99.7574,VALID,0.0509425,VALID,19.3844,VALID,256,VALID,0.0345644,
2003-02-25, 01:14:00,VALID,916.962,VALID,0,VALID,99.7637,VALID,0.0679233,VALID,19.3777,VALID,256,VALID,0,
2003-02-25, 01:15:00,VALID,916.942,VALID,0,VALID,99.7752,VALID,0.101885,VALID,19.3742,VALID,256,VALID,0,
2003-02-25, 01:16:01,VALID,916.916,VALID,0,VALID,99.7714,VALID,0.0849042,VALID,19.371,VALID,256,VALID,0,
2003-02-25, 01:17:00,VALID,916.897,VALID,0,VALID,99.7752,VALID,0.0679233,VALID,19.3717,VALID,256,VALID,0,
2003-02-25, 01:18:00,VALID,916.88,VALID,0,VALID,99.7777,VALID,0.0509425,VALID,19.3585,VALID,262,VALID,0.0991071,
2003-02-25, 01:19:00,VALID,916.853,VALID,0,VALID,99.7739,VALID,0.101885,VALID,19.3613,VALID,347,VALID,0.559422,
2003-02-25, 01:20:00,VALID,916.824,VALID,0,VALID,99.7752,VALID,0.101885,VALID,19.3419,VALID,5,VALID,0.600123,
2003-02-25, 01:21:00,VALID,916.786,VALID,0,VALID,99.7803,VALID,-0.0169808,VALID,19.3366,VALID,13,VALID,0.53171,
2003-02-25, 01:22:01,VALID,916.762,VALID,0,VALID,99.7675,VALID,-0.0169808,VALID,19.308,VALID,30,VALID,0.582386,
2003-02-25, 01:23:00,VALID,916.741,VALID,0,VALID,99.7612,VALID,-0.0169808,VALID,19.2688,VALID,36,VALID,0.517361,
2003-02-25, 01:24:00,VALID,916.721,VALID,0,VALID,99.7523,VALID,0,VALID,19.2367,VALID,57,VALID,0.463616,
2003-02-25, 01:25:00,VALID,916.723,VALID,0,VALID,99.751,VALID,-0.0339617,VALID,19.2014,VALID,61,VALID,0.486269,
2003-02-25, 01:26:00,VALID,916.713,VALID,0,VALID,99.7561,VALID,0,VALID,19.1977,VALID,61,VALID,0.49308,
2003-02-25, 01:27:00,VALID,916.687,VALID,0,VALID,99.765,VALID,0,VALID,19.2205,VALID,57,VALID,0.578348,
2003-02-25, 01:28:00,VALID,916.671,VALID,0,VALID,99.7637,VALID,0,VALID,19.2208,VALID,44,VALID,0.598958,
2003-02-25, 01:29:00,VALID,916.659,VALID,0,VALID,99.765,VALID,-0.0169808,VALID,19.1882,VALID,36,VALID,0.816817,
2003-02-25, 01:30:00,VALID,916.639,VALID,0,VALID,99.7739,VALID,0,VALID,19.1785,VALID,26,VALID,0.679917,
2003-02-25, 01:31:01,VALID,916.619,VALID,0,VALID,99.7815,VALID,0,VALID,19.172,VALID,26,VALID,0.647727,
2003-02-25, 01:32:00,VALID,916.601,VALID,0,VALID,99.7879,VALID,0,VALID,19.1556,VALID,27,VALID,0.587674,
2003-02-25, 01:33:01,VALID,916.586,VALID,0,VALID,99.7981,VALID,0,VALID,19.1917,VALID,42,VALID,0.555804,
2003-02-25, 01:34:00,VALID,916.562,VALID,0,VALID,99.7968,VALID,0,VALID,19.2016,VALID,42,VALID,0.446733,
2003-02-25, 01:35:00,VALID,916.559,VALID,0,VALID,99.8032,VALID,0,VALID,19.2203,VALID,42,VALID,0.279241,
2003-02-25, 01:36:00,VALID,916.536,VALID,0,VALID,99.7943,VALID,-0.0509425,VALID,19.2444,VALID,42,VALID,0.0515625,
2003-02-25, 01:37:00,VALID,916.522,VALID,0,VALID,99.8044,VALID,-0.0849042,VALID,19.2513,VALID,42,VALID,0.00094697,
2003-02-25, 01:38:00,VALID,916.499,VALID,0,VALID,99.7943,VALID,-0.101885,VALID,19.2635,VALID,42,VALID,0.000411184,
2003-02-25, 01:39:00,VALID,916.466,VALID,0,VALID,99.8006,VALID,-0.0679233,VALID,19.2871,VALID,42,VALID,0.0248162,
2003-02-25, 01:40:00,VALID,916.456,VALID,0,VALID,99.7968,VALID,-0.0849042,VALID,19.2968,VALID,42,VALID,0.0783617,
2003-02-25, 01:41:00,VALID,916.423,VALID,0,VALID,99.7993,VALID,-0.101885,VALID,19.306,VALID,42,VALID,0.0292969,
2003-02-25, 01:42:01,VALID,916.414,VALID,0,VALID,99.8019,VALID,-0.101885,VALID,19.319,VALID,42,VALID,0,
2003-02-25, 01:43:00,VALID,916.394,VALID,0,VALID,99.8032,VALID,-0.0509425,VALID,19.3187,VALID,42,VALID,0,
2003-02-25, 01:44:00,VALID,916.378,VALID,0,VALID,99.8032,VALID,-0.101885,VALID,19.3224,VALID,42,VALID,0,
2003-02-25, 01:45:00,VALID,916.387,VALID,0,VALID,99.8006,VALID,-0.101885,VALID,19.3162,VALID,42,VALID,0,
2003-02-25, 01:46:00,VALID,916.389,VALID,0,VALID,99.807,VALID,-0.0679233,VALID,19.2998,VALID,42,VALID,0,
2003-02-25, 01:47:01,VALID,916.377,VALID,0,VALID,99.7879,VALID,-0.101885,VALID,19.2836,VALID,42,VALID,0,
2003-02-25, 01:48:01,VALID,916.378,VALID,0,VALID,99.7892,VALID,-0.0679233,VALID,19.2675,VALID,42,VALID,0,
2003-02-25, 01:49:00,VALID,916.382,VALID,0,VALID,99.7841,VALID,-0.0849042,VALID,19.2513,VALID,42,VALID,0,
2003-02-25, 01:50:00,VALID,916.356,VALID,0,VALID,99.7726,VALID,-0.101885,VALID,19.2088,VALID,42,VALID,0,
2003-02-25, 01:51:00,VALID,916.354,VALID,0,VALID,99.7892,VALID,-0.0169808,VALID,19.1882,VALID,42,VALID,0,
2003-02-25, 01:52:01,VALID,916.356,VALID,0,VALID,99.7866,VALID,0.0339617,VALID,19.1556,VALID,42,VALID,0,
2003-02-25, 01:53:00,VALID,916.356,VALID,0,VALID,99.7739,VALID,0,VALID,19.1365,VALID,42,VALID,0,
2003-02-25, 01:54:00,VALID,916.347,VALID,0,VALID,99.7726,VALID,0,VALID,19.1106,VALID,42,VALID,0.101116,
2003-02-25, 01:55:00,VALID,916.337,VALID,0,VALID,99.7688,VALID,0.0339617,VALID,19.1109,VALID,42,VALID,0.208333,
2003-02-25, 01:56:00,VALID,916.34,VALID,0,VALID,99.7714,VALID,0.0339617,VALID,19.0813,VALID,42,VALID,0.299753,
2003-02-25, 01:57:01,VALID,916.342,VALID,0,VALID,99.7701,VALID,0.0339617,VALID,19.0684,VALID,42,VALID,0.297335,
2003-02-25, 01:58:00,VALID,916.334,VALID,0,VALID,99.7739,VALID,0,VALID,19.0684,VALID,42,VALID,0.106297,
2003-02-25, 01:59:00,VALID,916.329,VALID,0,VALID,99.7803,VALID,0.0339617,VALID,19.0753,VALID,42,VALID,0.207031,
2003-02-25, 02:00:00,VALID,916.329,VALID,0,VALID,99.7828,VALID,0.0169808,VALID,19.0912,VALID,40,VALID,0.260491,
2003-02-25, 02:01:01,VALID,916.313,VALID,0,VALID,99.7866,VALID,0,VALID,19.1049,VALID,37,VALID,0.261364,
2003-02-25, 02:02:01,VALID,916.311,VALID,0,VALID,99.8082,VALID,0,VALID,19.127,VALID,30,VALID,0.310045,
2003-02-25, 02:03:01,VALID,916.31,VALID,0,VALID,99.8019,VALID,0.0169808,VALID,19.1653,VALID,30,VALID,0.352009,
2003-02-25, 02:04:00,VALID,916.31,VALID,0,VALID,99.8108,VALID,0,VALID,19.1951,VALID,29,VALID,0.296402,
2003-02-25, 02:05:01,VALID,916.312,VALID,0,VALID,99.8133,VALID,0,VALID,19.2402,VALID,29,VALID,0.114926,
2003-02-25, 02:06:00,VALID,916.293,VALID,0,VALID,99.8032,VALID,0,VALID,19.2693,VALID,29,VALID,0,
2003-02-25, 02:07:01,VALID,916.288,VALID,0,VALID,99.8057,VALID,0,VALID,19.2787,VALID,29,VALID,0.0601326,
2003-02-25, 02:08:00,VALID,916.273,VALID,0,VALID,99.8057,VALID,0,VALID,19.2891,VALID,29,VALID,0.0381944,
2003-02-25, 02:09:01,VALID,916.24,VALID,0,VALID,99.8032,VALID,0,VALID,19.2824,VALID,29,VALID,0.184598,
2003-02-25, 02:10:01,VALID,916.227,VALID,0,VALID,99.8108,VALID,-0.0169808,VALID,19.3021,VALID,29,VALID,0.0440341,
2003-02-25, 02:11:01,VALID,916.202,VALID,0,VALID,99.8006,VALID,0,VALID,19.3083,VALID,29,VALID,0.0203125,
2003-02-25, 02:12:01,VALID,916.184,VALID,0,VALID,99.8082,VALID,0,VALID,19.2983,VALID,29,VALID,0,
2003-02-25, 02:13:01,VALID,916.175,VALID,0,VALID,99.7904,VALID,-0.0169808,VALID,19.3083,VALID,29,VALID,0.110559,
2003-02-25, 02:14:01,VALID,916.182,VALID,0,VALID,99.8095,VALID,0,VALID,19.2951,VALID,29,VALID,0.0668174,
2003-02-25, 02:15:01,VALID,916.18,VALID,0,VALID,99.8133,VALID,0,VALID,19.311,VALID,29,VALID,0.015625,
2003-02-25, 02:16:01,VALID,916.183,VALID,0,VALID,99.807,VALID,-0.0169808,VALID,19.3346,VALID,29,VALID,0,
2003-02-25, 02:17:01,VALID,916.205,VALID,0,VALID,99.8133,VALID,-0.0169808,VALID,19.3279,VALID,29,VALID,0,
2003-02-25, 02:18:01,VALID,916.203,VALID,0,VALID,99.8133,VALID,0,VALID,19.3341,VALID,29,VALID,0,
2003-02-25, 02:19:01,VALID,916.202,VALID,0,VALID,99.8133,VALID,0.0169808,VALID,19.3279,VALID,29,VALID,0,
2003-02-25, 02:20:01,VALID,916.201,VALID,0,VALID,99.8121,VALID,0.0169808,VALID,19.3374,VALID,29,VALID,0,
2003-02-25, 02:21:01,VALID,916.193,VALID,0,VALID,99.8171,VALID,0.0169808,VALID,19.3309,VALID,29,VALID,0.231473,
2003-02-25, 02:22:01,VALID,916.187,VALID,0,VALID,99.8057,VALID,0,VALID,19.3369,VALID,29,VALID,0.496449,
2003-02-25, 02:23:01,VALID,916.188,VALID,0,VALID,99.8082,VALID,0,VALID,19.3339,VALID,29,VALID,0.368832,
2003-02-25, 02:24:01,VALID,916.183,VALID,0,VALID,99.7955,VALID,-0.0169808,VALID,19.3339,VALID,29,VALID,0.290211,
2003-02-25, 02:25:01,VALID,916.201,VALID,0,VALID,99.7993,VALID,0,VALID,19.311,VALID,27,VALID,0.311316,
2003-02-25, 02:26:01,VALID,916.212,VALID,0,VALID,99.8082,VALID,0,VALID,19.2979,VALID,9,VALID,0.345703,
2003-02-25, 02:27:01,VALID,916.221,VALID,0,VALID,99.8019,VALID,0.0169808,VALID,19.3113,VALID,306,VALID,0.340402,
2003-02-25, 02:28:01,VALID,916.237,VALID,0,VALID,99.8044,VALID,0.0169808,VALID,19.3177,VALID,296,VALID,0.00994318,
2003-02-25, 02:29:01,VALID,916.232,VALID,0,VALID,99.8082,VALID,-0.0169808,VALID,19.3212,VALID,292,VALID,0.0892857,
2003-02-25, 02:30:01,VALID,916.237,VALID,0,VALID,99.8159,VALID,0,VALID,19.3083,VALID,248,VALID,0.233036,
2003-02-25, 02:31:00,VALID,916.236,VALID,0,VALID,99.8197,VALID,0,VALID,19.3115,VALID,242,VALID,0.0563447,
2003-02-25, 02:32:00,VALID,916.237,VALID,0,VALID,99.8108,VALID,0,VALID,19.3048,VALID,242,VALID,0.193051,
2003-02-25, 02:33:00,VALID,916.23,VALID,0,VALID,99.8159,VALID,0,VALID,19.3016,VALID,242,VALID,0.0358456,
2003-02-25, 02:34:00,VALID,916.231,VALID,0,VALID,99.8159,VALID,0,VALID,19.3085,VALID,242,VALID,0,
2003-02-25, 02:35:00,VALID,916.212,VALID,0,VALID,99.8133,VALID,0,VALID,19.2983,VALID,242,VALID,0,
2003-02-25, 02:36:00,VALID,916.218,VALID,0,VALID,99.807,VALID,0,VALID,19.2916,VALID,242,VALID,0,
2003-02-25, 02:37:00,VALID,916.214,VALID,0,VALID,99.8171,VALID,0,VALID,19.2921,VALID,274,VALID,0.126184,
2003-02-25, 02:38:00,VALID,916.205,VALID,0,VALID,99.8248,VALID,-0.0339617,VALID,19.2956,VALID,360,VALID,0.286161,
2003-02-25, 02:39:00,VALID,916.201,VALID,0,VALID,99.8133,VALID,-0.0169808,VALID,19.2596,VALID,359,VALID,0.258705,
2003-02-25, 02:40:00,VALID,916.183,VALID,0,VALID,99.826,VALID,-0.0339617,VALID,19.273,VALID,309,VALID,0.442235,
2003-02-25, 02:41:00,VALID,916.172,VALID,0,VALID,99.8197,VALID,0,VALID,19.2663,VALID,287,VALID,0.20847,
2003-02-25, 02:42:00,VALID,916.173,VALID,0,VALID,99.8133,VALID,-0.0169808,VALID,19.2693,VALID,287,VALID,0.14614,
2003-02-25, 02:43:00,VALID,916.178,VALID,0,VALID,99.8324,VALID,-0.0169808,VALID,19.2891,VALID,287,VALID,0.0793087,
2003-02-25, 02:44:00,VALID,916.159,VALID,0,VALID,99.8235,VALID,-0.0339617,VALID,19.2956,VALID,286,VALID,0.00260417,
2003-02-25, 02:45:00,VALID,916.164,VALID,0,VALID,99.8248,VALID,-0.0339617,VALID,19.2697,VALID,286,VALID,0,
2003-02-25, 02:46:00,VALID,916.161,VALID,0,VALID,99.821,VALID,0,VALID,19.2697,VALID,286,VALID,0,
2003-02-25, 02:47:00,VALID,916.167,VALID,0,VALID,99.821,VALID,-0.0169808,VALID,19.2566,VALID,286,VALID,0,
2003-02-25, 02:48:00,VALID,916.164,VALID,0,VALID,99.8349,VALID,-0.0339617,VALID,19.2533,VALID,325,VALID,0.219196,
2003-02-25, 02:49:00,VALID,916.173,VALID,0,VALID,99.8273,VALID,-0.0339617,VALID,19.2566,VALID,14,VALID,0.638494,
2003-02-25, 02:50:00,VALID,916.169,VALID,0,VALID,99.826,VALID,-0.0169808,VALID,19.2409,VALID,15,VALID,0.835526,
2003-02-25, 02:51:00,VALID,916.16,VALID,0,VALID,99.8222,VALID,-0.0339617,VALID,19.2307,VALID,14,VALID,0.944164,
2003-02-25, 02:52:00,VALID,916.181,VALID,0,VALID,99.8197,VALID,0,VALID,19.2212,VALID,27,VALID,1.17306,
2003-02-25, 02:53:00,VALID,916.183,VALID,0,VALID,99.8184,VALID,0,VALID,19.1919,VALID,25,VALID,0.984809,
2003-02-25, 02:54:00,VALID,916.185,VALID,0,VALID,99.8248,VALID,0,VALID,19.176,VALID,28,VALID,0.811161,
2003-02-25, 02:55:00,VALID,916.194,VALID,0,VALID,99.8273,VALID,0,VALID,19.169,VALID,29,VALID,0.680398,
2003-02-25, 02:56:00,VALID,916.196,VALID,0,VALID,99.8362,VALID,0,VALID,19.1889,VALID,36,VALID,0.465848,
2003-02-25, 02:57:00,VALID,916.175,VALID,0,VALID,99.8197,VALID,-0.0169808,VALID,19.1981,VALID,36,VALID,0.251116,
2003-02-25, 02:58:00,VALID,916.176,VALID,0,VALID,99.821,VALID,0,VALID,19.1889,VALID,62,VALID,0.32197,
2003-02-25, 02:59:00,VALID,916.163,VALID,0,VALID,99.8171,VALID,-0.0339617,VALID,19.1725,VALID,158,VALID,0.605674,
2003-02-25, 03:00:00,VALID,916.151,VALID,0,VALID,99.8146,VALID,-0.0169808,VALID,19.1566,VALID,152,VALID,0.622472,
2003-02-25, 03:01:00,VALID,916.144,VALID,0,VALID,99.8159,VALID,-0.0169808,VALID,19.1471,VALID,149,VALID,0.573627,
2003-02-25, 03:02:00,VALID,916.129,VALID,0,VALID,99.8222,VALID,0,VALID,19.1307,VALID,150,VALID,0.395399,
2003-02-25, 03:03:00,VALID,916.125,VALID,0,VALID,99.8171,VALID,-0.0339617,VALID,19.1213,VALID,150,VALID,0.498884,
2003-02-25, 03:04:00,VALID,916.109,VALID,0,VALID,99.8222,VALID,0,VALID,19.1173,VALID,150,VALID,0.327415,
2003-02-25, 03:05:00,VALID,916.114,VALID,0,VALID,99.821,VALID,-0.0849042,VALID,19.1208,VALID,150,VALID,0.102679,
2003-02-25, 03:06:00,VALID,916.106,VALID,0,VALID,99.8171,VALID,0,VALID,19.131,VALID,150,VALID,0,
2003-02-25, 03:07:00,VALID,916.098,VALID,0,VALID,99.8095,VALID,-0.0169808,VALID,19.1143,VALID,150,VALID,0,
2003-02-25, 03:08:00,VALID,916.1,VALID,0,VALID,99.8019,VALID,-0.0169808,VALID,19.089,VALID,150,VALID,0,
2003-02-25, 03:09:00,VALID,916.095,VALID,0,VALID,99.8019,VALID,-0.0169808,VALID,19.0564,VALID,150,VALID,0,
2003-02-25, 03:10:00,VALID,916.073,VALID,0,VALID,99.8032,VALID,-0.0169808,VALID,19.0469,VALID,149,VALID,0.111269,
2003-02-25, 03:11:00,VALID,916.071,VALID,0,VALID,99.7981,VALID,-0.0169808,VALID,19.0301,VALID,142,VALID,0.170139,
2003-02-25, 03:12:00,VALID,916.071,VALID,0,VALID,99.8006,VALID,0,VALID,19.0238,VALID,64,VALID,0.346205,
2003-02-25, 03:13:00,VALID,916.07,VALID,0,VALID,99.7968,VALID,-0.0169808,VALID,18.9982,VALID,63,VALID,0.125237,
2003-02-25, 03:14:00,VALID,916.057,VALID,0,VALID,99.8095,VALID,-0.0169808,VALID,19.0017,VALID,37,VALID,0.260491,
2003-02-25, 03:15:00,VALID,916.037,VALID,0,VALID,99.8133,VALID,0,VALID,18.9917,VALID,36,VALID,0.297991,
2003-02-25, 03:16:00,VALID,916.029,VALID,0,VALID,99.8006,VALID,-0.0169808,VALID,18.9657,VALID,36,VALID,0.290009,
2003-02-25, 03:17:00,VALID,916.003,VALID,0,VALID,99.8006,VALID,-0.0169808,VALID,18.9564,VALID,36,VALID,0.45991,
2003-02-25, 03:18:00,VALID,915.981,VALID,0,VALID,99.7981,VALID,-0.0169808,VALID,18.9599,VALID,36,VALID,0.411535,
2003-02-25, 03:19:00,VALID,915.964,VALID,0,VALID,99.8019,VALID,0,VALID,18.9786,VALID,36,VALID,0.373816,
2003-02-25, 03:20:00,VALID,915.966,VALID,0,VALID,99.8082,VALID,0,VALID,19.0569,VALID,36,VALID,0.468967,
2003-02-25, 03:21:00,VALID,915.954,VALID,0,VALID,99.8248,VALID,0,VALID,19.1042,VALID,36,VALID,0.322545,
2003-02-25, 03:22:00,VALID,915.953,VALID,0,VALID,99.826,VALID,0,VALID,19.1531,VALID,36,VALID,0.206203,
2003-02-25, 03:23:00,VALID,915.958,VALID,0,VALID,99.8299,VALID,0,VALID,19.1857,VALID,36,VALID,0.180134,
2003-02-25, 03:24:00,VALID,915.944,VALID,0,VALID,99.821,VALID,-0.0169808,VALID,19.2019,VALID,54,VALID,0.104018,
2003-02-25, 03:25:00,VALID,915.949,VALID,0,VALID,99.8273,VALID,0,VALID,19.1852,VALID,142,VALID,0.368134,
2003-02-25, 03:26:00,VALID,915.945,VALID,0,VALID,99.8159,VALID,0,VALID,19.1723,VALID,142,VALID,0.372944,
2003-02-25, 03:27:00,VALID,915.947,VALID,0,VALID,99.8133,VALID,-0.0339617,VALID,19.1723,VALID,142,VALID,0.0707721,
2003-02-25, 03:28:00,VALID,915.958,VALID,0,VALID,99.821,VALID,-0.0169808,VALID,19.176,VALID,142,VALID,0.328362,
2003-02-25, 03:29:00,VALID,915.961,VALID,0,VALID,99.8146,VALID,0,VALID,19.1693,VALID,142,VALID,0.0251736,
2003-02-25, 03:30:00,VALID,915.99,VALID,0,VALID,99.8057,VALID,0,VALID,19.1564,VALID,144,VALID,0.258482,
2003-02-25, 03:31:00,VALID,916.001,VALID,0,VALID,99.807,VALID,-0.0339617,VALID,19.1467,VALID,145,VALID,0.304688,
2003-02-25, 03:32:00,VALID,916.006,VALID,0,VALID,99.8019,VALID,0,VALID,19.134,VALID,146,VALID,0.254911,
2003-02-25, 03:33:00,VALID,916.034,VALID,0,VALID,99.8032,VALID,0,VALID,19.1273,VALID,165,VALID,0.658705,
2003-02-25, 03:34:00,VALID,916.039,VALID,0,VALID,99.7993,VALID,0,VALID,19.121,VALID,169,VALID,0.648201,
2003-02-25, 03:35:00,VALID,916.045,VALID,0,VALID,99.7955,VALID,0,VALID,19.1238,VALID,168,VALID,0.640831,
2003-02-25, 03:36:00,VALID,916.063,VALID,0,VALID,99.8006,VALID,-0.0339617,VALID,19.124,VALID,178,VALID,0.529182,
2003-02-25, 03:37:00,VALID,916.073,VALID,0,VALID,99.8044,VALID,-0.0339617,VALID,19.1305,VALID,183,VALID,0.382339,
2003-02-25, 03:38:00,VALID,916.092,VALID,0,VALID,99.8044,VALID,0,VALID,19.1437,VALID,198,VALID,0.282552,
2003-02-25, 03:39:00,VALID,916.107,VALID,0,VALID,99.8044,VALID,-0.0849042,VALID,19.1795,VALID,210,VALID,0.269643,